[[{"header":{"parameterUnit":"m.s-1","parameterCategory":2,"la1":30.2991,"la2":30.254,"lo1":-89.0895,"lo2":-89.0444,"dy":0.0017,"dx":0.0017,"nx":28,"ny":28,"refTime":"2024-06-25T21:00:00:Z","depth":"0","parameterNumber":2,"parameterNumberName":"U-component_of_CURRENTS"},"data":[0,0,0,0,0,0,0,0,0,0,0,0,0,0,0,0,0,0,0,0,0,0,0,0,0,0,0,0,0,0,0,0,0,0,0,0,0,0,0,0,0,0,0,0,0,0,0,0,0,0,0,0,0,0,0,0,0,0,0.2544,0.2545,0,0.2719,0.2722,0.2724,0.2856,0.2856,0.2857,0.2858,0.3056,0.306,0.3065,0,0,0,0,0,0,0,0,0,0,0,0,0,0.2376,0.2378,0.2544,0.2545,0.2547,0.2719,0.2722,0.2725,0.2856,0.2856,0.2857,0.2858,0.3054,0.306,0.3065,0,0,0,0,0,0,0,0,0,0,0,0,0,0.2493,0.2379,0.2543,0.263,0.2639,0.2718,0.2722,0.2725,0.2855,0.2857,0.2858,0.2859,0.3052,0.3059,0.3066,0.3085,0,0,0.3087,0.309,0,0,0,0,0,0,0,0,0.2487,0.25,0.2615,0.2624,0.2634,0.2763,0.2735,0.2845,0.2855,0.2778,0.2858,0.2859,0.2956,0.2971,0.3007,0.3094,0.3102,0.3087,0.3091,0.3094,0.3096,0,0,0,0,0,0,0,0.2478,0.2494,0.2618,0.2617,0.2629,0.2678,0.2696,0.2757,0.2862,0.2785,0.2794,0.2806,0.2962,0.3,0.3013,0.3105,0.3087,0.3093,0.3097,0.31,0.3274,0.3274,0,0,0,0,0,0,0.2444,0.2486,0.2612,0.2623,0.2557,0.2679,0.27,0.2724,0.2862,0.2882,0.2804,0.2811,0.2988,0.3005,0.302,0.3088,0.3094,0.3101,0.3105,0.3273,0.3274,0.3274,0,0,0,0,0,0,0.244,0.2454,0.2605,0.2554,0.2576,0.268,0.2707,0.2727,0.2779,0.2875,0.2898,0.2837,0.299,0.3011,0.3081,0.3095,0.3104,0.311,0.3272,0.3273,0.3274,0.3199,0,0,0,0,0,0,0.2434,0.2452,0.246,0.2552,0.2577,0.2672,0.2706,0.2729,0.2781,0.2792,0.291,0.2929,0.2992,0.307,0.3088,0.3105,0.3115,0.3272,0.3273,0.3274,0.3201,0.3197,0.3194,0,0,0,0,0,0.2428,0.2424,0.2459,0.2474,0.2585,0.2673,0.2692,0.2772,0.2781,0.282,0.2879,0.2926,0.3089,0.3076,0.3096,0.3115,0.3271,0.3272,0.3274,0.3202,0.3198,0.3194,0,0,0,0,0,0,0.2352,0.244,0.248,0.2504,0.2593,0.2694,0.271,0.2767,0.2845,0.284,0.293,0.2954,0.3026,0.3076,0.3058,0.3169,0.3189,0.3194,0.3128,0.3124,0.3121,0.3129,0.3121,0,0,0,0,0,0.2336,0.2364,0.2465,0.2489,0.2516,0.2613,0.2653,0.2715,0.2789,0.2826,0.2911,0.2983,0.3044,0.3086,0.3158,0.321,0.3221,0.3238,0.3234,0.3231,0.3252,0.3269,0.3268,0.3278,0.3278,0.3278,0,0,0.2307,0.2363,0.2376,0.2476,0.2532,0.259,0.2641,0.2698,0.2759,0.283,0.2922,0.2978,0.3056,0.3124,0.3159,0.3168,0.3222,0.3233,0.3229,0.3252,0.327,0.3269,0.3268,0.3279,0.3279,0.3279,0,0,0.2281,0.2313,0.2341,0.2406,0.2497,0.2559,0.2573,0.2687,0.2747,0.2844,0.2891,0.2954,0.3076,0.3128,0.3166,0.3185,0.3204,0.3204,0.3195,0.3209,0.3208,0.3208,0.3158,0.3154,0.32,0.32,0.32,0,0.2254,0.23,0.2363,0.2413,0.2447,0.2539,0.2578,0.2657,0.2791,0.2833,0.2871,0.3028,0.3086,0.3147,0.3154,0.318,0.3165,0.3197,0.3202,0.3202,0.3203,0.3153,0.3149,0.3197,0.3197,0.3197,0.3198,0,0.2264,0.2302,0.2309,0.2404,0.2454,0.2492,0.2595,0.2665,0.2737,0.2828,0.2929,0.3016,0.311,0.3129,0.3153,0.3183,0.3157,0.319,0.3204,0.3197,0.3144,0.3142,0.3192,0.3193,0.3194,0.3195,0,0,0.2212,0.2301,0.2305,0.2346,0.2441,0.2491,0.2559,0.2663,0.2717,0.2853,0.2925,0.3033,0.3081,0.3126,0.3159,0.3177,0.314,0.3178,0.318,0.3111,0.3114,0.3022,0.301,0.3162,0.3163,0.3163,0.3051,0,0.221,0.2264,0.2316,0.2375,0.2405,0.2487,0.255,0.2652,0.2751,0.285,0.2943,0.3022,0.3078,0.3098,0.3135,0.3157,0.314,0.3164,0.3148,0.3147,0.3054,0.3009,0.3054,0.2953,0.3048,0.3048,0.3048,0,0.2212,0.2248,0.2275,0.2362,0.2379,0.2426,0.2515,0.2593,0.2727,0.2798,0.2898,0.2982,0.3042,0.308,0.3128,0.3134,0.3116,0.3125,0.3121,0.3074,0.3054,0.2992,0.2946,0.2974,0.3044,0.3044,0.3045,0,0.2144,0.2227,0.2232,0.2259,0.2365,0.239,0.2446,0.2567,0.2621,0.2742,0.2781,0.2911,0.2928,0.2998,0.3041,0.3071,0.3061,0.3105,0.2996,0.2986,0.3046,0.3041,0.3024,0.3103,0.3104,0.3104,0.3104,0,0.2121,0.2148,0.2198,0.2212,0.2237,0.2325,0.237,0.2454,0.2547,0.2593,0.273,0.2773,0.2905,0.294,0.3004,0.298,0.3027,0.2981,0.2961,0.3012,0.3006,0.3053,0.3042,0.31,0.3101,0.3101,0.3102,0,0.2078,0.2102,0.2127,0.219,0.2206,0.2221,0.2295,0.2341,0.242,0.2472,0.249,0.2622,0.2671,0.2779,0.2839,0.2869,0.2828,0.2858,0.2872,0.2855,0.2795,0.2777,0.2443,0.2401,0.2734,0.2731,0.2729,0,0.2073,0.2064,0.2081,0.2076,0.2104,0.2133,0.2156,0.2253,0.2292,0.2387,0.2398,0.2447,0.2524,0.2573,0.2657,0.2711,0.2672,0.2699,0.2786,0.2777,0.2745,0.2517,0.2493,0.2811,0.281,0.2809,0.2808,0,0.2061,0.2039,0.205,0.2014,0.2017,0.2031,0.2069,0.2078,0.218,0.2226,0.2281,0.2342,0.2404,0.2513,0.2539,0.2589,0.2615,0.2668,0.2701,0.2824,0.2538,0.2495,0.2848,0.2797,0.2798,0.2799,0.2799,0.28,0.2046,0.2022,0.1994,0.1972,0.1961,0.1943,0.1944,0.1999,0.204,0.2131,0.2184,0.2291,0.247,0.2563,0.2536,0.2588,0.2457,0.2644,0.2621,0.2384,0.235,0.2618,0.2521,0.2521,0.252,0.252,0.252,0,0.2026,0.1993,0.1963,0.192,0.1886,0.1897,0.1902,0.1909,0.195,0.2086,0.2161,0.2378,0.2498,0.2596,0.2697,0.2637,0.2491,0.2593,0.241,0.2397,0.2733,0.276,0.2661,0.2661,0.2661,0.2661,0.2661,0.2661,0.2012,0.1965,0.1936,0.1862,0.1833,0.1788,0.1782,0.1809,0.1901,0.2046,0.2188,0.2302,0.2515,0.269,0.2722,0.2677,0.2517,0.2332,0.2264,0.2706,0.2714,0.2721,0.2749,0.2649,0.2649,0.1914,0.1909,0.1905]},{"header":{"parameterUnit":"m.s-1","parameterCategory":2,"la1":30.2991,"la2":30.254,"lo1":-89.0895,"lo2":-89.0444,"dy":0.0017,"dx":0.0017,"nx":28,"ny":28,"refTime":"2024-06-25T21:00:00:Z","depth":"0","parameterNumber":3,"parameterNumberName":"V-component_of_CURRENTS"},"data":[0,0,0,0,0,0,0,0,0,0,0,0,0,0,0,0,0,0,0,0,0,0,0,0,0,0,0,0,0,0,0,0,0,0,0,0,0,0,0,0,0,0,0,0,0,0,0,0,0,0,0,0,0,0,0,0,0,0,0.0452,0.0451,0,0.0389,0.0388,0.0387,0.0363,0.0363,0.0364,0.0364,0.0408,0.0409,0.041,0,0,0,0,0,0,0,0,0,0,0,0,0,0.0486,0.0486,0.0452,0.0451,0.045,0.0389,0.0388,0.0387,0.0363,0.0363,0.0364,0.0364,0.0408,0.0409,0.041,0,0,0,0,0,0,0,0,0,0,0,0,0,0.045,0.0486,0.0452,0.0432,0.043,0.0389,0.0388,0.0386,0.0363,0.0363,0.0364,0.0364,0.0407,0.0409,0.041,0.0407,0,0,0.0414,0.0414,0,0,0,0,0,0,0,0,0.0453,0.0449,0.0436,0.0434,0.0431,0.0386,0.0416,0.0399,0.0363,0.0386,0.0364,0.0365,0.0411,0.0412,0.0395,0.0409,0.0411,0.0414,0.0415,0.0415,0.0416,0,0,0,0,0,0,0,0.0455,0.0451,0.0425,0.0435,0.0432,0.0405,0.0401,0.0412,0.0397,0.0384,0.0383,0.0379,0.0411,0.0394,0.0396,0.0412,0.0414,0.0415,0.0416,0.0416,0.0469,0.047,0,0,0,0,0,0,0.0469,0.0454,0.0427,0.0423,0.0445,0.0404,0.0399,0.0398,0.0395,0.0394,0.0378,0.0378,0.0391,0.0395,0.0398,0.0459,0.0415,0.0416,0.0417,0.0468,0.0469,0.047,0,0,0,0,0,0,0.047,0.0468,0.0429,0.0438,0.0432,0.0404,0.0402,0.0397,0.0397,0.0389,0.0391,0.0387,0.0392,0.0396,0.044,0.0459,0.0417,0.0418,0.0468,0.0469,0.047,0.0541,0,0,0,0,0,0,0.0472,0.0468,0.0471,0.0439,0.0432,0.0427,0.0402,0.0395,0.0394,0.0393,0.0397,0.04,0.0393,0.0438,0.0441,0.046,0.0419,0.0467,0.0468,0.0469,0.0537,0.0544,0.0549,0,0,0,0,0,0.0473,0.0481,0.0471,0.0468,0.0437,0.0428,0.0422,0.0401,0.0394,0.0402,0.0414,0.0401,0.0447,0.0441,0.0444,0.0463,0.0466,0.0468,0.0469,0.0535,0.0543,0.0549,0,0,0,0,0,0,0.0495,0.0479,0.0468,0.0469,0.0459,0.0425,0.0423,0.0413,0.0423,0.0429,0.0423,0.0428,0.0469,0.0456,0.0449,0.0478,0.0448,0.0451,0.0497,0.0504,0.051,0.053,0.042,0,0,0,0,0,0.0501,0.0507,0.0485,0.0488,0.0482,0.0455,0.0448,0.0441,0.0442,0.0445,0.045,0.0456,0.0471,0.0484,0.0492,0.0517,0.0477,0.0525,0.0531,0.0536,0.0553,0.0488,0.0489,0.0475,0.0475,0.0475,0,0,0.051,0.0502,0.0504,0.0494,0.0476,0.0487,0.0452,0.0454,0.0481,0.0452,0.0494,0.0486,0.0484,0.0513,0.0528,0.051,0.0521,0.0538,0.0543,0.0557,0.0489,0.0491,0.0492,0.0476,0.0476,0.0475,0,0,0.0538,0.0522,0.0539,0.0534,0.0525,0.0515,0.0524,0.0509,0.052,0.0555,0.054,0.0549,0.057,0.0567,0.057,0.0613,0.0557,0.0607,0.0655,0.0591,0.0592,0.0592,0.0548,0.0543,0.0606,0.0606,0.0606,0,0.0542,0.0565,0.0542,0.0557,0.0562,0.0537,0.0563,0.057,0.0579,0.0603,0.0585,0.0603,0.0595,0.063,0.0639,0.0629,0.0585,0.0631,0.0599,0.0598,0.0596,0.0551,0.0545,0.061,0.0609,0.0609,0.0609,0,0.0588,0.0602,0.061,0.0626,0.0633,0.0647,0.0655,0.0679,0.0685,0.0691,0.0728,0.0704,0.0712,0.0701,0.0689,0.0684,0.0654,0.0616,0.0581,0.0602,0.0553,0.0546,0.0615,0.0614,0.0613,0.0612,0,0,0.0592,0.0634,0.0636,0.0662,0.0671,0.0686,0.0737,0.0776,0.0817,0.0816,0.0858,0.0857,0.0827,0.0827,0.0793,0.0739,0.0687,0.0679,0.0673,0.0638,0.0554,0.0556,0.0547,0.0633,0.0632,0.0631,0.0525,0,0.0628,0.0689,0.0699,0.0758,0.0785,0.0788,0.084,0.0877,0.0895,0.0931,0.091,0.0927,0.0882,0.087,0.0819,0.0723,0.067,0.0721,0.0538,0.0533,0.0533,0.054,0.0604,0.0517,0.0518,0.0516,0.0515,0,0.0661,0.0703,0.0772,0.0837,0.0849,0.0886,0.0954,0.0996,0.104,0.105,0.1055,0.1029,0.0993,0.0924,0.0783,0.0813,0.0699,0.0611,0.0603,0.0579,0.0521,0.0494,0.0503,0.0443,0.0503,0.0504,0.0505,0,0.0682,0.0748,0.0815,0.0831,0.0901,0.0944,0.0983,0.1036,0.1081,0.1112,0.1122,0.109,0.1046,0.0921,0.0762,0.0757,0.0583,0.0544,0.0445,0.0444,0.0453,0.0455,0.0387,0.0429,0.0429,0.0429,0.043,0,0.0708,0.0755,0.0834,0.0867,0.0953,0.0984,0.107,0.1103,0.115,0.1203,0.1174,0.1179,0.1031,0.0927,0.0784,0.0606,0.0593,0.0465,0.0417,0.0481,0.0486,0.0397,0.0362,0.0425,0.0426,0.0427,0.0428,0,0.0711,0.0761,0.0836,0.0928,0.0962,0.102,0.1113,0.1172,0.12,0.1257,0.1261,0.1219,0.1093,0.0947,0.073,0.0621,0.0435,0.0385,0.0487,0.0455,0.0329,0.0297,0.0213,0.0212,0.0273,0.0273,0.0272,0,0.0721,0.0761,0.0871,0.0924,0.0967,0.1059,0.1127,0.1191,0.1251,0.1282,0.1308,0.1214,0.1186,0.0906,0.0694,0.0474,0.0403,0.0372,0.0377,0.0343,0.0271,0.0279,0.0286,0.0413,0.0414,0.0414,0.0415,0,0.0733,0.0769,0.0837,0.0944,0.1025,0.1123,0.122,0.1278,0.1352,0.14,0.143,0.1407,0.1169,0.1007,0.0714,0.0547,0.0395,0.0376,0.0303,0.0356,0.0397,0.0368,0.0469,0.042,0.0419,0.0419,0.0419,0.0418,0.0737,0.0781,0.087,0.0973,0.1065,0.1179,0.1276,0.1376,0.1483,0.1605,0.1558,0.1625,0.1386,0.1012,0.0725,0.0388,0.0396,0.0325,0.0281,0.0288,0.0319,0.045,0.0369,0.0368,0.0368,0.0367,0.0367,0,0.0743,0.0807,0.0897,0.1027,0.1127,0.1179,0.1338,0.1459,0.1604,0.1767,0.1838,0.1903,0.1548,0.1183,0.0703,0.04,0.0303,0.0248,0.0276,0.028,0.0356,0.0396,0.0365,0.0365,0.0365,0.0365,0.0365,0.0365,0.075,0.0835,0.0891,0.1058,0.1152,0.131,0.1413,0.1593,0.1777,0.209,0.229,0.2406,0.2263,0.123,0.0593,0.0391,0.0243,0.017,0.0095,0.0143,0.0147,0.0152,0.0181,0.0105,0.0105,0.0098,0.0097,0.0097]}],[{"header":{"parameterUnit":"m.s-1","parameterCategory":2,"la1":30.2991,"la2":30.254,"lo1":-89.0895,"lo2":-89.0444,"dy":0.0017,"dx":0.0017,"nx":28,"ny":28,"refTime":"2024-06-25T21:00:00:Z","depth":"2","parameterNumber":2,"parameterNumberName":"U-component_of_CURRENTS"},"data":[0,0,0,0,0,0,0,0,0,0,0,0,0,0,0,0,0,0,0,0,0,0,0,0,0,0,0,0,0,0,0,0,0,0,0,0,0,0,0,0,0,0,0,0,0,0,0,0,0,0,0,0,0,0,0,0,0,0,0.2443,0.2444,0,0.2572,0.2574,0.2575,0.2674,0.2675,0.2676,0.2677,0.2919,0.2924,0.293,0,0,0,0,0,0,0,0,0,0,0,0,0,0.2282,0.2284,0.2442,0.2444,0.2446,0.2572,0.2574,0.2576,0.2674,0.2675,0.2676,0.2677,0.2917,0.2923,0.293,0,0,0,0,0,0,0,0,0,0,0,0,0,0.2376,0.2285,0.2442,0.251,0.2517,0.2571,0.2574,0.2576,0.2674,0.2675,0.2676,0.2678,0.2915,0.2923,0.2931,0.2957,0,0,0.2957,0.2961,0,0,0,0,0,0,0,0,0.237,0.2382,0.2498,0.2505,0.2513,0.2608,0.2606,0.2709,0.2674,0.2615,0.2677,0.2678,0.2824,0.284,0.286,0.2968,0.2979,0.2958,0.2963,0.2966,0.2969,0,0,0,0,0,0,0,0.2364,0.2377,0.2494,0.25,0.2509,0.2534,0.2549,0.2625,0.2713,0.262,0.2627,0.2641,0.2829,0.2852,0.2867,0.2982,0.2957,0.2965,0.297,0.2973,0.3192,0.3193,0,0,0,0,0,0,0.2346,0.2371,0.249,0.2498,0.2443,0.2536,0.2552,0.2577,0.271,0.273,0.2639,0.2645,0.2837,0.2857,0.2876,0.2967,0.2966,0.2974,0.2979,0.3192,0.3193,0.3193,0,0,0,0,0,0,0.2342,0.2355,0.2485,0.2436,0.2454,0.2537,0.2563,0.2578,0.2626,0.2723,0.2746,0.2674,0.2839,0.2864,0.2954,0.2975,0.2978,0.2986,0.3191,0.3192,0.3193,0.3115,0,0,0,0,0,0,0.2337,0.2353,0.2362,0.2435,0.2456,0.2551,0.2563,0.258,0.2631,0.264,0.2761,0.2783,0.2842,0.2941,0.2963,0.2987,0.2992,0.319,0.3191,0.3193,0.3116,0.3113,0.311,0,0,0,0,0,0.2331,0.2327,0.2361,0.2376,0.2467,0.2553,0.2567,0.2629,0.2631,0.2672,0.2728,0.278,0.2966,0.2948,0.2973,0.3,0.3189,0.3191,0.3192,0.3118,0.3114,0.311,0,0,0,0,0,0,0.2255,0.2339,0.2378,0.24,0.249,0.257,0.2581,0.2634,0.2706,0.27,0.279,0.2817,0.2906,0.2962,0.294,0.3068,0.3087,0.3094,0.3021,0.3019,0.3016,0.3021,0.2999,0,0,0,0,0,0.2243,0.2271,0.237,0.2394,0.2422,0.2505,0.2541,0.2596,0.2666,0.2699,0.2788,0.2862,0.2928,0.2979,0.3056,0.3125,0.3134,0.3159,0.3156,0.3153,0.3175,0.3192,0.3191,0.3199,0.3199,0.3199,0,0,0.2215,0.2268,0.2282,0.2381,0.243,0.2486,0.253,0.2586,0.2646,0.2713,0.2805,0.2863,0.2944,0.3018,0.3063,0.3072,0.3144,0.3155,0.3152,0.3176,0.3193,0.3192,0.3191,0.32,0.32,0.32,0,0,0.2192,0.2223,0.2251,0.2317,0.2408,0.2462,0.2485,0.259,0.2648,0.275,0.2788,0.2858,0.2992,0.3038,0.3076,0.3107,0.3127,0.3131,0.3124,0.3138,0.3137,0.3137,0.3083,0.3079,0.3128,0.3128,0.3128,0,0.2166,0.2212,0.2275,0.2325,0.2356,0.2451,0.249,0.2566,0.27,0.2745,0.2783,0.294,0.3005,0.3067,0.3071,0.3103,0.3085,0.3123,0.3131,0.3131,0.3132,0.3078,0.3074,0.3125,0.3125,0.3125,0.3126,0,0.2176,0.2215,0.2222,0.2316,0.2367,0.2407,0.2512,0.2588,0.2661,0.2747,0.2859,0.2943,0.3037,0.3058,0.3078,0.3112,0.3084,0.3117,0.3129,0.3125,0.3069,0.3066,0.312,0.3121,0.3122,0.3123,0,0,0.2128,0.2215,0.222,0.2261,0.2355,0.2405,0.2479,0.2589,0.2645,0.2786,0.2859,0.2969,0.3016,0.3062,0.3092,0.3109,0.3068,0.3107,0.3109,0.3034,0.3038,0.2947,0.2935,0.309,0.309,0.3091,0.2971,0,0.2128,0.2181,0.2232,0.2291,0.2322,0.2406,0.247,0.2577,0.2683,0.2784,0.288,0.296,0.3016,0.3034,0.307,0.3086,0.3069,0.3095,0.3073,0.3072,0.2977,0.2933,0.2759,0.2633,0.2968,0.2968,0.2967,0,0.2131,0.2167,0.2194,0.228,0.2297,0.2344,0.2438,0.2517,0.2658,0.2734,0.2839,0.2923,0.2982,0.3018,0.3061,0.3068,0.3046,0.3051,0.3047,0.3002,0.2979,0.2708,0.2616,0.2963,0.2963,0.2964,0.2964,0,0.2065,0.2148,0.2154,0.218,0.2283,0.2312,0.2369,0.2496,0.2553,0.2681,0.2719,0.2852,0.2866,0.2934,0.2971,0.3002,0.2983,0.3027,0.2916,0.2907,0.278,0.2759,0.3025,0.3025,0.3025,0.3025,0.3026,0,0.2044,0.2071,0.2123,0.2136,0.2162,0.2247,0.2296,0.2384,0.2479,0.2527,0.2668,0.2708,0.2842,0.2873,0.2933,0.2904,0.295,0.2902,0.2881,0.274,0.2718,0.3051,0.3056,0.3021,0.3022,0.3023,0.3023,0,0.2002,0.2027,0.2052,0.2116,0.2132,0.2148,0.2222,0.227,0.2351,0.2404,0.2422,0.2553,0.2599,0.2706,0.2761,0.279,0.2814,0.2774,0.2566,0.2524,0.273,0.2733,0.2654,0.265,0.2647,0.2644,0.2642,0,0.1996,0.1989,0.2006,0.2001,0.2031,0.2062,0.2085,0.2184,0.2224,0.2315,0.2324,0.2372,0.244,0.2482,0.2519,0.2557,0.267,0.2382,0.2443,0.2711,0.2698,0.2705,0.2712,0.2206,0.22,0.2196,0.2192,0,0.1985,0.1964,0.1975,0.1941,0.1946,0.1959,0.1997,0.2007,0.2108,0.2145,0.2195,0.2249,0.2263,0.2241,0.2246,0.2267,0.2389,0.2286,0.261,0.2345,0.2284,0.2273,0.2295,0.215,0.2154,0.2157,0.216,0.2161,0.197,0.1947,0.192,0.19,0.1889,0.187,0.1871,0.1901,0.1931,0.1965,0.2041,0.2043,0.2059,0.2013,0.1962,0.1923,0.2111,0.2075,0.2091,0.2112,0.21,0.2039,0.1852,0.1854,0.1856,0.1858,0.186,0,0.1939,0.1919,0.189,0.1848,0.18,0.1826,0.1827,0.1784,0.1783,0.182,0.1844,0.1692,0.1677,0.1702,0.1583,0.1587,0.1589,0.1537,0.1549,0.1592,0.163,0.1595,0.1212,0.1209,0.1207,0.1205,0,0,0.1922,0.1871,0.1842,0.1762,0.1745,0.1666,0.1657,0.1591,0.158,0.1521,0.1512,0.1618,0.1679,0.1428,0.1395,0.1291,0.1431,0.1236,0.1763,0.1824,0.1859,0.1954,0.195,0,0,0,0,0]},{"header":{"parameterUnit":"m.s-1","parameterCategory":2,"la1":30.2991,"la2":30.254,"lo1":-89.0895,"lo2":-89.0444,"dy":0.0017,"dx":0.0017,"nx":28,"ny":28,"refTime":"2024-06-25T21:00:00:Z","depth":"2","parameterNumber":3,"parameterNumberName":"V-component_of_CURRENTS"},"data":[0,0,0,0,0,0,0,0,0,0,0,0,0,0,0,0,0,0,0,0,0,0,0,0,0,0,0,0,0,0,0,0,0,0,0,0,0,0,0,0,0,0,0,0,0,0,0,0,0,0,0,0,0,0,0,0,0,0,0.0425,0.0424,0,0.0357,0.0356,0.0355,0.0328,0.0329,0.0329,0.033,0.0377,0.0377,0.0378,0,0,0,0,0,0,0,0,0,0,0,0,0,0.046,0.046,0.0425,0.0424,0.0423,0.0357,0.0356,0.0355,0.0328,0.0329,0.0329,0.033,0.0376,0.0377,0.0378,0,0,0,0,0,0,0,0,0,0,0,0,0,0.0422,0.046,0.0425,0.0404,0.0402,0.0357,0.0356,0.0354,0.0328,0.0329,0.0329,0.033,0.0376,0.0377,0.0379,0.0375,0,0,0.0383,0.0383,0,0,0,0,0,0,0,0,0.0424,0.042,0.0408,0.0405,0.0403,0.0354,0.0386,0.0368,0.0328,0.0354,0.033,0.033,0.0381,0.0382,0.0363,0.0377,0.0379,0.0383,0.0384,0.0384,0.0385,0,0,0,0,0,0,0,0.0427,0.0423,0.0396,0.0407,0.0404,0.0374,0.0369,0.0381,0.0365,0.0352,0.035,0.0346,0.038,0.0361,0.0364,0.038,0.0383,0.0384,0.0385,0.0385,0.0442,0.0443,0,0,0,0,0,0,0.0443,0.0426,0.0398,0.0394,0.0418,0.0373,0.0368,0.0367,0.0362,0.0362,0.0345,0.0345,0.0359,0.0362,0.0366,0.0428,0.0384,0.0385,0.0386,0.0442,0.0442,0.0443,0,0,0,0,0,0,0.0444,0.0441,0.0401,0.041,0.0403,0.0373,0.0371,0.0365,0.0365,0.0357,0.0358,0.0354,0.0359,0.0364,0.0409,0.0428,0.0386,0.0387,0.0441,0.0442,0.0443,0.0512,0,0,0,0,0,0,0.0445,0.0442,0.0444,0.0411,0.0403,0.0398,0.0371,0.0364,0.0362,0.0361,0.0365,0.0368,0.036,0.0407,0.0411,0.0429,0.0388,0.044,0.0441,0.0442,0.0509,0.0515,0.0521,0,0,0,0,0,0.0447,0.0455,0.0445,0.0441,0.0408,0.0399,0.0392,0.037,0.0362,0.0371,0.0382,0.0369,0.0417,0.041,0.0413,0.0433,0.0439,0.0441,0.0442,0.0506,0.0514,0.0521,0,0,0,0,0,0,0.0469,0.0452,0.0441,0.0442,0.0431,0.0396,0.0393,0.0383,0.0392,0.0398,0.0392,0.0397,0.0439,0.0427,0.0419,0.045,0.042,0.0423,0.0467,0.0475,0.0481,0.0501,0.0389,0,0,0,0,0,0.0475,0.048,0.0458,0.0461,0.0455,0.0427,0.0419,0.0412,0.0413,0.0415,0.042,0.0426,0.0442,0.0455,0.0463,0.049,0.045,0.0498,0.0505,0.051,0.0527,0.0461,0.0463,0.0448,0.0448,0.0448,0,0,0.0484,0.0476,0.0477,0.0467,0.0449,0.0459,0.0424,0.0426,0.0453,0.0423,0.0465,0.0457,0.0455,0.0485,0.05,0.0482,0.0494,0.0512,0.0517,0.0531,0.0463,0.0464,0.0465,0.045,0.0449,0.0449,0,0,0.0512,0.0496,0.0513,0.0508,0.0499,0.0488,0.0498,0.0482,0.0493,0.0528,0.0512,0.0522,0.0543,0.054,0.0542,0.0587,0.0531,0.0582,0.0629,0.0565,0.0566,0.0566,0.0521,0.0517,0.0581,0.0581,0.0581,0,0.0517,0.0539,0.0517,0.0531,0.0536,0.0511,0.0537,0.0544,0.0553,0.0577,0.0559,0.0576,0.0569,0.0604,0.0613,0.0603,0.0558,0.0604,0.0573,0.0572,0.057,0.0525,0.0519,0.0584,0.0584,0.0583,0.0583,0,0.0562,0.0577,0.0584,0.06,0.0606,0.0621,0.0629,0.0653,0.0659,0.0665,0.0704,0.0679,0.0686,0.0675,0.0662,0.0658,0.0628,0.0589,0.0554,0.0576,0.0527,0.0519,0.0589,0.0588,0.0587,0.0586,0,0,0.0568,0.0609,0.0611,0.0637,0.0644,0.0659,0.0711,0.0751,0.0792,0.0792,0.0834,0.0833,0.0803,0.0803,0.0768,0.0714,0.066,0.0652,0.0647,0.061,0.0526,0.0529,0.052,0.0605,0.0604,0.0603,0.0497,0,0.0604,0.0664,0.0673,0.0732,0.0758,0.0762,0.0814,0.0851,0.087,0.0906,0.0886,0.0903,0.0858,0.0846,0.0794,0.0696,0.0643,0.0694,0.051,0.0506,0.0506,0.0513,0.051,0.0418,0.0489,0.0488,0.0487,0,0.0637,0.0678,0.0747,0.0811,0.0822,0.0859,0.0928,0.097,0.1015,0.1026,0.1032,0.1006,0.0969,0.09,0.0757,0.0787,0.0673,0.0583,0.0575,0.0553,0.0495,0.0406,0.04,0.0474,0.0475,0.0476,0.0477,0,0.0658,0.0724,0.0791,0.0806,0.0874,0.0918,0.0957,0.101,0.1055,0.1089,0.1098,0.1067,0.1022,0.0896,0.0736,0.073,0.0554,0.0515,0.0418,0.0416,0.0369,0.0366,0.04,0.04,0.0401,0.0401,0.0401,0,0.0685,0.0732,0.081,0.0843,0.0928,0.0958,0.1044,0.1077,0.1125,0.1177,0.115,0.1153,0.1006,0.0901,0.0758,0.0579,0.0566,0.0437,0.039,0.0395,0.0396,0.0408,0.041,0.0397,0.0398,0.0399,0.0399,0,0.0688,0.0738,0.0812,0.0904,0.0938,0.0994,0.1087,0.1146,0.1174,0.123,0.1234,0.1192,0.1064,0.092,0.0702,0.0593,0.0426,0.0358,0.0394,0.0354,0.0327,0.0334,0.0248,0.0247,0.0246,0.0246,0.0245,0,0.0698,0.0738,0.0847,0.09,0.0943,0.1034,0.1101,0.1165,0.1224,0.1253,0.1277,0.1184,0.1152,0.0872,0.0649,0.0427,0.04,0.0277,0.0272,0.035,0.0311,0.0319,0.0327,0.0229,0.0228,0.0228,0.0227,0,0.071,0.0745,0.0813,0.0919,0.1,0.1096,0.1192,0.125,0.1322,0.1365,0.1391,0.1365,0.1118,0.0903,0.0608,0.0449,0.0324,0.0262,0.0301,0.0286,0.0327,0.0292,0.03,0.0223,0.0224,0.0224,0.0224,0.0224,0.0713,0.0756,0.0846,0.0948,0.1039,0.1151,0.1247,0.1332,0.1432,0.1512,0.1476,0.1444,0.1186,0.0821,0.054,0.0262,0.0294,0.0195,0.0198,0.02,0.0235,0.0275,0.0168,0.0168,0.0168,0.0168,0.0168,0,0.0715,0.0782,0.0872,0.1001,0.1094,0.1151,0.1307,0.1398,0.1518,0.1584,0.1617,0.1374,0.1118,0.0827,0.0416,0.0176,0.014,0.009,0.0102,0.0109,0.0114,0.0145,0.0053,0.0052,0.0051,0.005,0,0,0.0722,0.0804,0.0859,0.1021,0.1117,0.126,0.1361,0.1484,0.1577,0.1656,0.1654,0.1593,0.1238,0.0912,0.056,0.032,0.0273,0.026,0.0381,0.0446,0.0454,0.0204,0.0264,0,0,0,0,0]}],[{"header":{"parameterUnit":"m.s-1","parameterCategory":2,"la1":30.2991,"la2":30.254,"lo1":-89.0895,"lo2":-89.0444,"dy":0.0017,"dx":0.0017,"nx":28,"ny":28,"refTime":"2024-06-25T21:00:00:Z","depth":"4","parameterNumber":2,"parameterNumberName":"U-component_of_CURRENTS"},"data":[0,0,0,0,0,0,0,0,0,0,0,0,0,0,0,0,0,0,0,0,0,0,0,0,0,0,0,0,0,0,0,0,0,0,0,0,0,0,0,0,0,0,0,0,0,0,0,0,0,0,0,0,0,0,0,0,0,0,0.0841,0.0839,0,0.0721,0.072,0.0719,0.0859,0.0864,0.0869,0.0873,0.0751,0.0743,0.0735,0,0,0,0,0,0,0,0,0,0,0,0,0,0.1013,0.1011,0.0841,0.0839,0.0837,0.0722,0.072,0.0719,0.0858,0.0864,0.087,0.0876,0.0753,0.0744,0.0735,0,0,0,0,0,0,0,0,0,0,0,0,0,0.0924,0.101,0.0841,0.089,0.0893,0.0722,0.072,0.0719,0.0857,0.0864,0.0872,0.0878,0.0756,0.0745,0.0733,0.0512,0,0,0.0697,0.0692,0,0,0,0,0,0,0,0,0.0929,0.0918,0.0885,0.0887,0.089,0.081,0.0736,0.0648,0.0855,0.0874,0.0874,0.0882,0.0762,0.075,0.0716,0.0507,0.0502,0.0696,0.0689,0.0684,0.0681,0,0,0,0,0,0,0,0.0935,0.0923,0.0797,0.0882,0.0885,0.0858,0.0855,0.0719,0.0781,0.0873,0.0882,0.0861,0.0765,0.0727,0.0714,0.05,0.0697,0.0686,0.0679,0.0674,0.0415,0.0416,0,0,0,0,0,0,0.0943,0.0928,0.0801,0.0793,0.0924,0.0849,0.0846,0.0831,0.0782,0.0781,0.0855,0.0868,0.0744,0.0728,0.0711,0.0799,0.0684,0.0673,0.0666,0.0415,0.0416,0.0416,0,0,0,0,0,0,0.0948,0.0933,0.0805,0.0856,0.0838,0.0839,0.0819,0.0824,0.0851,0.0768,0.077,0.0886,0.0749,0.0727,0.0761,0.0782,0.0668,0.0657,0.0415,0.0415,0.0416,0.0747,0,0,0,0,0,0,0.0953,0.0935,0.0928,0.0856,0.0835,0.0632,0.0812,0.0816,0.0821,0.084,0.0791,0.0785,0.0753,0.078,0.0749,0.0764,0.0648,0.0415,0.0415,0.0416,0.0736,0.0759,0.0779,0,0,0,0,0,0.096,0.094,0.0928,0.0913,0.0825,0.0623,0.0604,0.0637,0.0816,0.0718,0.0884,0.079,0.0757,0.0774,0.0737,0.0748,0.0415,0.0415,0.0416,0.0727,0.0755,0.0778,0,0,0,0,0,0,0.1027,0.0948,0.0937,0.0899,0.0726,0.0645,0.0639,0.0649,0.0693,0.0807,0.0819,0.0816,0.0822,0.0724,0.0743,0.0664,0.0551,0.0545,0.08,0.0824,0.0845,0.0789,0.0638,0,0,0,0,0,0.1021,0.0982,0.084,0.0786,0.0755,0.0704,0.0658,0.0632,0.0655,0.0687,0.0689,0.0731,0.0762,0.077,0.0686,0.0656,0.0582,0.0621,0.0643,0.0663,0.0586,0.0594,0.0612,0.0417,0.0417,0.0417,0,0,0.1043,0.0981,0.0969,0.0792,0.0753,0.0714,0.07,0.0611,0.0637,0.0655,0.0772,0.0761,0.0762,0.0778,0.0764,0.0733,0.0694,0.0663,0.0683,0.0592,0.0597,0.0616,0.0634,0.0418,0.0417,0.0417,0,0,0.105,0.1014,0.0993,0.0888,0.0752,0.0703,0.0687,0.0593,0.0623,0.0638,0.0752,0.0782,0.0756,0.0792,0.0828,0.0875,0.0782,0.0841,0.0941,0.0957,0.0974,0.0988,0.1012,0.1025,0.0888,0.0888,0.0889,0,0.1081,0.102,0.0926,0.0895,0.0857,0.0745,0.0716,0.0712,0.0637,0.0665,0.07,0.0778,0.0762,0.0894,0.0967,0.0919,0.0934,0.089,0.0995,0.1005,0.1014,0.1033,0.1043,0.0904,0.0902,0.0901,0.0899,0,0.1079,0.1039,0.1033,0.0994,0.0922,0.0825,0.0804,0.0758,0.0819,0.0811,0.085,0.0864,0.0904,0.0922,0.1003,0.1062,0.1059,0.1016,0.0959,0.1056,0.1068,0.1073,0.0927,0.0921,0.0917,0.0913,0,0,0.1107,0.1036,0.104,0.103,0.095,0.0884,0.0953,0.0886,0.0988,0.0922,0.0989,0.1091,0.1061,0.1086,0.1127,0.1163,0.1306,0.1161,0.1155,0.1232,0.1391,0.1246,0.1237,0.1351,0.1352,0.1352,0.1414,0,0.1102,0.1056,0.1035,0.1041,0.102,0.0977,0.1056,0.1032,0.1032,0.1051,0.1056,0.1133,0.1158,0.1214,0.1256,0.1274,0.1318,0.1292,0.1232,0.1227,0.1129,0.1234,0.1353,0.1416,0.1417,0.1418,0.1418,0,0.1104,0.1049,0.1045,0.1041,0.1055,0.1089,0.1138,0.1174,0.1202,0.1221,0.1252,0.1234,0.1316,0.127,0.1366,0.1387,0.1388,0.1379,0.1382,0.1095,0.1086,0.1261,0.1425,0.1424,0.1424,0.1423,0.1423,0,0.1117,0.1072,0.1062,0.1063,0.1074,0.1115,0.1151,0.1218,0.1249,0.1318,0.1323,0.1394,0.1424,0.1437,0.1413,0.1451,0.1423,0.1467,0.1315,0.1308,0.1279,0.1261,0.1444,0.1444,0.1443,0.1443,0.1443,0,0.1087,0.1086,0.1082,0.1088,0.1123,0.1176,0.1241,0.1307,0.1345,0.1386,0.1434,0.1421,0.1471,0.1431,0.1421,0.1371,0.145,0.13,0.1299,0.1426,0.1423,0.1289,0.127,0.1446,0.1445,0.1445,0.1444,0,0.1098,0.1082,0.1087,0.1116,0.1125,0.1194,0.1242,0.1291,0.1399,0.1413,0.1437,0.148,0.15,0.1445,0.1438,0.139,0.133,0.1259,0.1381,0.1389,0.1226,0.1223,0.119,0.1185,0.1181,0.1178,0.1175,0,0.1077,0.1077,0.1116,0.113,0.1143,0.1196,0.1222,0.1307,0.1339,0.142,0.1412,0.1421,0.1419,0.1309,0.1292,0.1231,0.118,0.1184,0.1212,0.119,0.1194,0.1197,0.12,0.1168,0.1167,0.1166,0.1165,0,0.1034,0.1092,0.1106,0.1114,0.1149,0.1152,0.1193,0.1187,0.1295,0.1361,0.1361,0.1307,0.127,0.124,0.115,0.11,0.1223,0.1141,0.1152,0.1179,0.1163,0.1172,0.1179,0.115,0.1152,0.1154,0.1155,0,0.1026,0.1035,0.1073,0.1083,0.1115,0.1108,0.1121,0.113,0.1155,0.125,0.1224,0.1224,0.1259,0.1163,0.1077,0.1013,0.1038,0.105,0.1066,0.1082,0.1001,0.0961,0.087,0,0,0,0,0,0.0982,0.0984,0.1007,0.1011,0.1052,0.106,0.11,0.1121,0.1168,0.1152,0.119,0.1136,0.1059,0.1049,0.0959,0.1008,0.1022,0.0902,0.1042,0.107,0.1087,0.099,0,0,0,0,0,0,0.095,0.0976,0.098,0.0947,0.0944,0.0957,0.0984,0.1021,0.1012,0.1076,0.1032,0.1087,0.1008,0.1087,0.0943,0.0934,0.1005,0.0897,0.0894,0.106,0.1075,0.1089,0.0996,0,0,0,0,0]},{"header":{"parameterUnit":"m.s-1","parameterCategory":2,"la1":30.2991,"la2":30.254,"lo1":-89.0895,"lo2":-89.0444,"dy":0.0017,"dx":0.0017,"nx":28,"ny":28,"refTime":"2024-06-25T21:00:00:Z","depth":"4","parameterNumber":3,"parameterNumberName":"V-component_of_CURRENTS"},"data":[0,0,0,0,0,0,0,0,0,0,0,0,0,0,0,0,0,0,0,0,0,0,0,0,0,0,0,0,0,0,0,0,0,0,0,0,0,0,0,0,0,0,0,0,0,0,0,0,0,0,0,0,0,0,0,0,0,0,0.0242,0.0243,0,0.0256,0.0256,0.0256,0.0265,0.0266,0.0267,0.0267,0.0174,0.0171,0.0168,0,0,0,0,0,0,0,0,0,0,0,0,0,0.0243,0.0242,0.0242,0.0243,0.0243,0.0256,0.0256,0.0256,0.0265,0.0266,0.0267,0.0268,0.0175,0.0171,0.0168,0,0,0,0,0,0,0,0,0,0,0,0,0,0.0243,0.0242,0.0242,0.0254,0.0256,0.0256,0.0256,0.0255,0.0265,0.0266,0.0267,0.0268,0.0176,0.0172,0.0167,0.012,0,0,0.0153,0.0151,0,0,0,0,0,0,0,0,0.0243,0.0242,0.0252,0.0253,0.0255,0.0265,0.0223,0.0207,0.0265,0.0255,0.0267,0.0268,0.0197,0.0191,0.0185,0.0116,0.0112,0.0153,0.015,0.0148,0.0147,0,0,0,0,0,0,0,0.0243,0.0242,0.0242,0.0252,0.0255,0.0266,0.0266,0.022,0.0214,0.0256,0.0259,0.0269,0.0197,0.019,0.0183,0.0111,0.0153,0.0149,0.0146,0.0144,0.001,0.001,0,0,0,0,0,0,0.0251,0.0241,0.0241,0.0243,0.0258,0.0266,0.0266,0.0256,0.0217,0.0215,0.0268,0.027,0.0197,0.0188,0.0179,0.0173,0.0148,0.0144,0.0141,0.0011,0.001,0.0009,0,0,0,0,0,0,0.025,0.0249,0.0241,0.0248,0.0249,0.0265,0.0254,0.0256,0.0262,0.0229,0.0223,0.0275,0.0197,0.0186,0.0176,0.0167,0.0141,0.0137,0.0012,0.0011,0.001,0.0126,0,0,0,0,0,0,0.0249,0.0248,0.0247,0.0248,0.0249,0.0251,0.0254,0.0256,0.0269,0.0271,0.0232,0.0224,0.0197,0.0184,0.0172,0.016,0.0134,0.0013,0.0011,0.001,0.0123,0.0128,0.0133,0,0,0,0,0,0.0249,0.0251,0.0246,0.0247,0.0244,0.0252,0.0253,0.0264,0.0269,0.0271,0.0267,0.0226,0.0163,0.0181,0.0167,0.0153,0.0014,0.0012,0.001,0.012,0.0127,0.0133,0,0,0,0,0,0,0.0262,0.0253,0.0247,0.0248,0.0253,0.0257,0.0268,0.0269,0.0265,0.0267,0.0236,0.0228,0.0204,0.016,0.0179,0.0104,0.0071,0.0067,0.0159,0.0165,0.0171,0.0167,0.013,0,0,0,0,0,0.0259,0.0254,0.0251,0.0256,0.0257,0.0259,0.0266,0.0267,0.0268,0.0268,0.0252,0.0216,0.018,0.0165,0.0121,0.0095,0.0049,0.0065,0.0071,0.0076,0.006,-0.0015,-0.0017,0.0003,0.0003,0.0003,0,0,0.0273,0.0265,0.0266,0.0258,0.0261,0.0268,0.0264,0.0274,0.0276,0.0253,0.0259,0.0234,0.0175,0.0154,0.0135,0.0123,0.0057,0.0074,0.0079,0.0059,-0.0017,-0.0019,-0.002,0.0002,0.0002,0.0003,0,0,0.0299,0.0281,0.0286,0.0284,0.0286,0.0282,0.0288,0.0292,0.0288,0.0291,0.0269,0.0245,0.0207,0.0164,0.0134,0.013,0.0085,0.0116,0.0148,0.0078,0.0077,0.0074,0.0074,0.0071,0.0124,0.0124,0.0124,0,0.0312,0.0311,0.0294,0.0297,0.0304,0.0292,0.0304,0.0292,0.0297,0.0303,0.0302,0.0244,0.0197,0.0155,0.0167,0.0139,0.0128,0.0144,0.0089,0.0085,0.008,0.008,0.0074,0.0129,0.0129,0.0128,0.0127,0,0.034,0.0339,0.0345,0.0337,0.0341,0.0347,0.0333,0.0339,0.034,0.0338,0.0312,0.0259,0.0231,0.0203,0.0193,0.0139,0.0155,0.0108,0.0085,0.0086,0.0085,0.0078,0.0137,0.0135,0.0133,0.0132,0,0,0.0358,0.0361,0.0365,0.0376,0.0357,0.0374,0.0368,0.0372,0.0381,0.0364,0.0371,0.0301,0.0293,0.0254,0.0217,0.0155,0.0139,0.0142,0.0136,0.0165,0.0054,0.0074,0.0068,0.0104,0.0101,0.01,0.009,0,0.0381,0.0405,0.0395,0.0428,0.0437,0.0424,0.0433,0.0434,0.0416,0.0421,0.0354,0.0344,0.0303,0.0306,0.0237,0.0154,0.0115,0.0149,0.0025,0.0022,0.0057,0.0056,0.0093,0.0084,0.0082,0.0081,0.008,0,0.0403,0.0414,0.0451,0.0478,0.0485,0.0511,0.0526,0.053,0.0512,0.0509,0.0477,0.0431,0.0366,0.0314,0.0174,0.0215,0.0148,0.0074,0.0071,0.0032,0.0025,0.006,0.0065,0.0066,0.0067,0.0068,0.0069,0,0.0429,0.0454,0.0493,0.0498,0.0525,0.0558,0.0582,0.0573,0.0581,0.0572,0.0581,0.049,0.0462,0.0333,0.0205,0.0201,0.0048,0.0012,-0.0034,-0.003,-0.0092,-0.0091,-0.0104,-0.0104,-0.0104,-0.0104,-0.0104,0,0.0443,0.0472,0.0523,0.0545,0.0604,0.0617,0.0665,0.0676,0.0679,0.0697,0.0644,0.0613,0.0462,0.0359,0.0231,0.0095,0.007,-0.0031,-0.005,-0.0034,-0.0027,-0.0093,-0.0092,-0.0104,-0.0104,-0.0104,-0.0104,0,0.0453,0.0482,0.0533,0.0594,0.0618,0.0672,0.0731,0.0757,0.0775,0.0785,0.0797,0.072,0.0593,0.0434,0.0232,0.0147,-0.0008,-0.0051,0.0035,0.0022,-0.0032,-0.0025,-0.0099,-0.0099,-0.0098,-0.0098,-0.0098,0,0.0453,0.0484,0.0574,0.0618,0.0652,0.0725,0.0769,0.0809,0.0833,0.0831,0.0842,0.0744,0.0668,0.0436,0.0252,0.0038,-0.001,-0.0036,-0.0097,-0.003,-0.0041,-0.0034,-0.0027,-0.0098,-0.0098,-0.0098,-0.0098,0,0.0447,0.0497,0.0546,0.0636,0.0707,0.0773,0.0845,0.0871,0.0914,0.0916,0.0885,0.0767,0.0631,0.0435,0.0292,0.0115,0.0002,-0.0035,-0.0038,-0.0096,-0.003,-0.0039,-0.0033,-0.0097,-0.0097,-0.0097,-0.0097,0,0.0446,0.0483,0.0565,0.0645,0.073,0.0809,0.0847,0.0894,0.0925,0.0933,0.0909,0.0767,0.0688,0.0474,0.0315,0.0174,0.0115,0.0084,0.0074,0.0071,0.0104,0.0212,0.02,0,0,0,0,0,0.0432,0.0483,0.056,0.0659,0.0748,0.0802,0.0887,0.0922,0.0954,0.0944,0.0937,0.0805,0.0591,0.0491,0.0348,0.0281,0.0074,0.011,0.003,-0.0094,-0.0095,-0.0087,0,0,0,0,0,0,0.0428,0.0497,0.055,0.0656,0.0726,0.0823,0.0885,0.0913,0.0917,0.0926,0.0808,0.0776,0.0553,0.0658,0.034,0.0296,0.0232,0.0009,0.0007,-0.0093,-0.0094,-0.0095,-0.0087,0,0,0,0,0]}]]